Location: Bannatyne
(13.0833°N, 59.5333°W)
Time: 14:37:32
(UTC+00:00)

Explorer 7 - Pass Details

Date: 31 January 2020
Orbit: 485 x 679 km, 50.3° (Epoch: 28 February)

Event Time Altitude Azimuth Distance (km) Brightness Sun altitude
Rises 08:57:48 0° 309° (NW) 2,636 - -21.2°
Reaches altitude 10° 09:00:04 10° 301° (WNW) 1,778 - -20.7°
Maximum altitude 09:03:49 37° 233° (SW) 863 - -19.8°
Exits shadow 09:03:51 37° 231° (SW) 864 7.5 -19.8°
Drops below altitude 10° 09:07:48 10° 165° (SSE) 1,888 9.9 -18.8°
Sets 09:10:16 0° 157° (SSE) 2,825 11.0 -18.3°
